Location: eljas
(40.1958°N, 6.8661°W)
Time: 08:17:50
(UTC+02:00)

Amateur Radio Satellites - All Passes

Search period start: 25 July 2016 07:47
Search period end: 26 July 2016 07:47
Location: eljas, 40.1958°N, 6.8661°W

Satellite Date Start Highest point End Downlink Frequencies (MHz)
Time Altitude Azimuth
LilacSat-2 25 Jul 07:52:28 07:55:06 17° 93° (E) 07:57:43 437.200
Cubesat XI-IV 25 Jul 07:54:51 07:59:03 23° 94° (E) 08:03:14 437.490
HORYU 2 25 Jul 08:00:26 08:04:44 46° 288° (WNW) 08:09:00 437.375
DANDE 25 Jul 08:04:01 08:07:07 15° 286° (WNW) 08:09:50 436.750
PCSat 25 Jul 08:13:05 08:17:19 24° 253° (WSW) 08:21:33 145.827
CUBESAT XI-V 25 Jul 08:13:24 08:16:15 16° 268° (W) 08:19:07 437.345
RS-15 25 Jul 08:17:53 08:28:28 47° 109° (ESE) 08:39:36 29.354- 29.394
CUTE-I 25 Jul 08:18:49 08:23:49 39° 98° (E) 08:28:45 437.470
O/OREOS (USA 219) 25 Jul 08:23:23 08:27:43 43° 64° (ENE) 08:32:03 437.305
AIST 2 25 Jul 08:26:29 08:30:40 82° 58° (ENE) 08:34:50 435.215
NOAA 18 25 Jul 08:32:18 08:37:43 51° 101° (E) 08:43:04 137.9125
STRAND 1 25 Jul 08:35:59 08:41:02 58° 72° (ENE) 08:46:06 437.568
GOMX 1 25 Jul 08:39:53 08:44:47 54° 100° (E) 08:49:58 467.674
DOVE 4 25 Jul 08:46:39 08:51:09 30° 96° (E) 08:55:46 437.250
NOAA 15 25 Jul 08:47:32 08:52:49 85° 285° (WNW) 08:58:05 137.62
BRITE-PL 25 Jul 09:02:32 09:07:00 43° 287° (WNW) 09:11:48 437.365/2234.400
PRISM 25 Jul 09:05:51 09:07:46 13° 64° (ENE) 09:09:41 437.425
AO-7 25 Jul 09:05:58 09:09:15 13° 315° (NW) 09:12:33 29.400- 29.500
Cosmos 2491 25 Jul 09:06:01 09:11:34 18° 62° (ENE) 09:17:04 435.465 / 435.565
CINEMA 3 25 Jul 09:18:17 09:21:46 19° 91° (E) 09:25:14 145.822/145.860
LilacSat-2 25 Jul 09:26:01 09:29:28 31° 289° (WNW) 09:32:52 437.200
HO-68 25 Jul 09:33:28 09:39:26 27° 95° (E) 09:45:21 435.675
Cubesat XI-IV 25 Jul 09:34:14 09:39:17 43° 290° (WNW) 09:44:18 437.490
CANX-2 25 Jul 09:43:27 09:47:00 26° 95° (E) 09:50:31 2200.000
AAUSAT CUBESAT 2 25 Jul 09:55:28 09:56:36 11° 90° (E) 09:57:45 437.432
CUTE 1.7 + AOD 2 25 Jul 09:57:12 10:01:01 32° 97° (E) 10:04:46 437.475
CUTE-I 25 Jul 09:59:15 10:03:39 27° 294° (WNW) 10:08:00 437.470
O/OREOS (USA 219) 25 Jul 10:03:47 10:06:44 17° 260° (W) 10:09:42 437.305
SO-50 25 Jul 10:05:20 10:09:56 43° 116° (ESE) 10:14:32 436.795
NOAA 18 25 Jul 10:13:48 10:17:59 22° 297° (WNW) 10:22:09 137.9125
STRAND 1 25 Jul 10:17:23 10:20:34 16° 268° (W) 10:23:44 437.568
GOMX 1 25 Jul 10:19:05 10:22:30 19° 294° (WNW) 10:26:02 467.674
DOVE 4 25 Jul 10:24:16 10:28:46 33° 290° (WNW) 10:33:24 437.250
UWE-3 25 Jul 10:26:20 10:29:27 18° 92° (E) 10:32:28 435.000/436.395/437.385
RS-15 25 Jul 10:29:29 10:40:44 55° 312° (NW) 10:52:38 29.354- 29.394
NOAA 15 25 Jul 10:30:14 10:31:45 11° 302° (WNW) 10:33:17 137.62
ZACube-1 25 Jul 10:33:34 10:35:38 13° 90° (E) 10:37:41 437.345
FUNcube-1 25 Jul 10:34:20 10:36:07 12° 89° (E) 10:37:53 145.935
YUBILEINY 25 Jul 10:34:56 10:41:50 27° 82° (E) 10:48:45 435.215
PRISM 25 Jul 10:38:40 10:42:38 51° 260° (W) 10:46:37 437.425
SEEDS 25 Jul 10:40:51 10:45:02 74° 102° (ESE) 10:49:11 437.485
CUBEBUG 2 25 Jul 10:42:02 10:46:28 38° 97° (E) 10:50:47 437.445
TIGRISAT 25 Jul 10:45:28 10:47:59 15° 63° (ENE) 10:50:29 435.000
CINEMA 3 25 Jul 10:54:17 10:59:08 49° 287° (WNW) 11:03:57 145.822/145.860
COMPASS 1 25 Jul 10:57:25 11:01:35 80° 101° (ESE) 11:05:42 437.405
UNISAT 6 25 Jul 10:59:49 11:03:18 21° 66° (ENE) 11:06:49 437.425
Cosmos 2491 25 Jul 11:00:55 11:09:43 87° 84° (E) 11:18:31 435.465 / 435.565
Oscar 11 25 Jul 11:18:26 11:22:31 40° 98° (E) 11:26:34 145.826/435.025
CANX-2 25 Jul 11:19:18 11:22:46 25° 291° (WNW) 11:26:12 2200.000
HO-68 25 Jul 11:20:28 11:27:27 56° 292° (WNW) 11:34:24 435.675
AAUSAT CUBESAT 2 25 Jul 11:28:24 11:32:26 55° 285° (WNW) 11:36:26 437.432
CUTE 1.7 + AOD 2 25 Jul 11:33:30 11:36:38 21° 293° (WNW) 11:39:45 437.475
ANTELSAT 25 Jul 11:37:14 11:41:40 51° 73° (ENE) 11:46:13 437.575/2403.000
M-CUBED/EXP-1 PRIME 25 Jul 11:38:43 11:42:21 22° 99° (E) 11:45:58 437.505
SO-50 25 Jul 11:46:30 11:50:35 26° 313° (NW) 11:54:39 436.795
QB50P2 25 Jul 11:55:41 11:57:40 13° 63° (ENE) 11:59:38 145.880/145.840
Cosmos 2504 25 Jul 11:55:52 12:03:13 31° 83° (E) 12:10:35 435.465 / 435.565
POLYITAN 1 25 Jul 11:58:13 12:00:17 13° 63° (ENE) 12:02:21 437.675
UWE-3 25 Jul 12:01:42 12:06:06 44° 288° (WNW) 12:10:24 435.000/436.395/437.385
AUBIESAT-1 25 Jul 12:06:33 12:10:48 34° 102° (ESE) 12:15:00 437.475
ZACube-1 25 Jul 12:07:50 12:12:18 57° 286° (WNW) 12:16:38 437.345
FUNcube-1 25 Jul 12:08:19 12:12:46 60° 286° (WNW) 12:17:05 145.935
HUMSAT D 25 Jul 12:08:33 12:12:15 29° 96° (E) 12:15:53 437.325/437.525
DELFI C3 25 Jul 12:11:56 12:15:53 74° 102° (ESE) 12:19:48 145.870
CUBEBUG 2 25 Jul 12:19:12 12:22:48 22° 294° (WNW) 12:26:20 437.445
TIGRISAT 25 Jul 12:19:35 12:24:06 60° 260° (W) 12:28:45 435.000
YUBILEINY 25 Jul 12:29:13 12:37:54 64° 281° (W) 12:46:41 435.215
UNISAT 6 25 Jul 12:35:27 12:39:44 38° 263° (W) 12:44:07 437.425
NANOSAT C BR1 25 Jul 12:41:37 12:45:29 36° 71° (ENE) 12:49:23 145.865
DUCHIFAT 1 25 Jul 12:47:04 12:50:58 39° 72° (ENE) 12:54:55 145.980
RS-15 25 Jul 12:47:51 12:56:55 24° 343° (NNW) 13:06:14 29.354- 29.394
Oscar 11 25 Jul 12:55:27 12:58:20 18° 294° (WNW) 13:01:11 145.826/435.025
Cosmos 2491 25 Jul 12:59:58 13:05:19 18° 282° (WNW) 13:10:40 435.465 / 435.565
QB50P1 25 Jul 13:02:13 13:06:23 67° 76° (ENE) 13:10:39 145.935-145.965
POPSAT HIP 1 25 Jul 13:08:23 13:12:36 77° 76° (ENE) 13:16:53 437.405
BUGSAT 1 25 Jul 13:12:04 13:15:40 31° 70° (ENE) 13:19:22 437.445
HO-68 25 Jul 13:12:26 13:13:37 10° 311° (NW) 13:14:47 435.675
M-CUBED/EXP-1 PRIME 25 Jul 13:12:32 13:16:55 41° 294° (WNW) 13:21:19 437.505
ANTELSAT 25 Jul 13:15:54 13:18:39 16° 269° (W) 13:21:28 437.575/2403.000
AISAT 25 Jul 13:17:39 13:20:40 18° 93° (E) 13:23:41 437.250
DX 1 25 Jul 13:26:24 13:28:52 15° 92° (E) 13:31:21 434.975-435.025
QB50P2 25 Jul 13:28:47 13:32:58 56° 260° (W) 13:37:11 145.880/145.840
JAS-2 25 Jul 13:31:02 13:36:51 45° 71° (ENE) 13:42:07 435.910
POLYITAN 1 25 Jul 13:31:26 13:35:36 55° 260° (W) 13:39:49 437.675
Oscar 19 25 Jul 13:33:03 13:34:54 12° 59° (ENE) 13:36:46 437.125/150
AUBIESAT-1 25 Jul 13:41:14 13:45:03 26° 297° (WNW) 13:48:52 437.475
ESTCUBE 1 25 Jul 13:41:31 13:45:55 54° 100° (E) 13:50:17 437.505/2401.250
UKube-1 25 Jul 13:44:13 13:47:14 18° 94° (E) 13:50:13 .
HUMSAT D 25 Jul 13:44:27 13:47:42 22° 292° (WNW) 13:50:54 437.325/437.525
Cosmos 2504 25 Jul 13:47:22 13:56:02 59° 282° (WNW) 14:04:48 435.465 / 435.565
VELOX 1 25 Jul 14:08:21 14:12:45 61° 101° (E) 14:17:09 145.980
50 SAT 25 Jul 14:13:34 14:17:10 82° 101° (E) 14:20:45 437.505
CUBEBUG 1 25 Jul 14:15:52 14:20:17 87° 104° (ESE) 14:24:41 437.445
NANOSAT C BR1 25 Jul 14:18:24 14:21:19 18° 267° (W) 14:24:17 145.865
SPROUT 25 Jul 14:21:25 14:25:29 39° 98° (E) 14:29:32 437.525
DUCHIFAT 1 25 Jul 14:24:04 14:26:48 17° 267° (W) 14:29:36 145.980
Gurwin Techsat 1B 25 Jul 14:32:02 14:35:50 20° 63° (ENE) 14:39:39 435.225
YUBILEINY 25 Jul 14:33:41 14:36:43 12° 304° (WNW) 14:39:46 435.215
BUGSAT 1 25 Jul 14:48:10 14:51:07 19° 266° (W) 14:54:06 437.445
AISAT 25 Jul 14:53:07 14:57:18 41° 289° (WNW) 15:01:29 437.250
AIST 1 25 Jul 14:57:33 15:01:23 34° 91° (E) 15:05:14
DX 1 25 Jul 15:01:06 15:05:19 48° 288° (WNW) 15:09:30 434.975-435.025
ITAMSAT 1 25 Jul 15:01:49 15:04:03 13° 59° (ENE) 15:06:17 435.822/435.867
RS-15 25 Jul 15:05:55 15:15:25 25° 19° (NNE) 15:24:59 29.354- 29.394
Oscar 19 25 Jul 15:08:21 15:13:28 87° 256° (WSW) 15:18:38 437.125/150
JAS-2 25 Jul 15:17:02 15:22:03 25° 264° (W) 15:26:40 435.910
UKube-1 25 Jul 15:19:23 15:23:24 38° 289° (WNW) 15:27:23 .
ESTCUBE 1 25 Jul 15:19:46 15:22:16 15° 296° (WNW) 15:24:45 437.505/2401.250
TISAT 1 25 Jul 15:25:23 15:29:30 47° 100° (E) 15:33:36 437.305
AO-85 25 Jul 15:39:20 15:44:24 42° 115° (ESE) 15:49:17 145.980
VELOX 1 25 Jul 15:46:36 15:48:41 13° 297° (WNW) 15:50:48 145.980
Cosmos 2504 25 Jul 15:48:51 15:51:29 11° 304° (WNW) 15:54:07 435.465 / 435.565
SWISSCUBE 25 Jul 15:56:07 15:59:43 21° 94° (E) 16:03:17 437.505
SPROUT 25 Jul 15:58:10 16:01:08 18° 294° (WNW) 16:04:05 437.525
Gurwin Techsat 1B 25 Jul 16:10:11 16:15:22 52° 260° (W) 16:20:34 435.225
AO-7 25 Jul 16:16:10 16:23:51 43° 62° (ENE) 16:31:34 29.400- 29.500
BEESAT 25 Jul 16:17:17 16:21:32 31° 97° (E) 16:25:44 436.000
AIST 1 25 Jul 16:36:10 16:39:05 18° 288° (WNW) 16:42:01
ITAMSAT 1 25 Jul 16:37:32 16:42:46 85° 256° (WSW) 16:48:02 435.822/435.867
GONETS M04 25 Jul 16:37:35 16:45:20 38° 86° (E) 16:53:06
ITUPSAT 1 25 Jul 16:38:35 16:43:14 51° 100° (E) 16:47:51 437.325
Cosmos 2499 25 Jul 16:54:20 17:02:10 37° 86° (E) 17:09:53 435.465 / 435.565
CUSAT 1 25 Jul 16:55:48 16:58:41 78° 262° (W) 17:02:13 437.405
DANDE 25 Jul 16:58:22 17:00:21 19° 76° (ENE) 17:02:25 436.750
TISAT 1 25 Jul 17:02:15 17:04:45 15° 295° (WNW) 17:07:15 437.305
MOZHAYETS 4 25 Jul 17:18:51 17:21:51 17° 92° (E) 17:24:48
RS-15 25 Jul 17:19:14 17:31:26 59° 50° (NE) 17:43:26 29.354- 29.394
AO-85 25 Jul 17:20:18 17:25:00 30° 311° (NW) 17:29:31 145.980
HORYU 2 25 Jul 17:23:13 17:25:45 15° 63° (ENE) 17:28:18 437.375
SWISSCUBE 25 Jul 17:33:13 17:37:38 39° 290° (WNW) 17:42:01 437.505
STARS 25 Jul 17:45:53 17:48:22 15° 92° (E) 17:50:50 437.465
BEESAT 25 Jul 17:55:12 17:59:11 27° 293° (WNW) 18:03:08 436.000
AO-7 25 Jul 18:08:40 18:16:31 44° 260° (W) 18:24:27 29.400- 29.500
ITUPSAT 1 25 Jul 18:17:32 18:20:39 18° 296° (WNW) 18:23:45 437.325
NOAA 18 25 Jul 18:21:13 18:23:41 13° 58° (ENE) 18:26:10 137.9125
NOAA 15 25 Jul 18:29:29 18:33:03 19° 62° (ENE) 18:36:37 137.62
CUBESAT XI-V 25 Jul 18:33:09 18:35:02 12° 90° (E) 18:36:55 437.345
GONETS M04 25 Jul 18:33:45 18:41:56 45° 285° (WNW) 18:50:14
KKS-1 25 Jul 18:35:56 18:40:27 76° 284° (WNW) 18:44:55 437.445
BRITE-PL 25 Jul 18:36:32 18:39:21 18° 66° (ENE) 18:42:10 437.365/2234.400
SO-50 25 Jul 18:37:27 18:41:40 33° 49° (NE) 18:45:46 436.795
Cosmos 2499 25 Jul 18:46:27 18:55:00 50° 284° (WNW) 19:03:26 435.465 / 435.565
MOZHAYETS 4 25 Jul 18:54:51 18:59:13 44° 288° (WNW) 19:03:32
HORYU 2 25 Jul 18:57:27 19:01:50 54° 260° (W) 19:06:15 437.375
PHONESAT 2.4 25 Jul 18:59:18 19:01:24 17° 150° (SSE) 19:03:30 2401.200-2431.200
Cubesat XI-IV 25 Jul 19:16:01 19:20:54 37° 68° (ENE) 19:25:49 437.490
STARS 25 Jul 19:20:41 19:24:59 49° 288° (WNW) 19:29:16 437.465
RS-15 25 Jul 19:32:17 19:43:38 46° 252° (WSW) 19:54:50 29.354- 29.394
CUTE-I 25 Jul 19:39:54 19:45:10 61° 73° (ENE) 19:50:29 437.470
GOMX 1 25 Jul 19:48:13 19:52:11 47° 73° (ENE) 19:56:18 467.674
DOVE 4 25 Jul 19:52:26 19:55:51 24° 67° (ENE) 19:59:23 437.250
NOAA 18 25 Jul 19:57:59 20:03:31 90° 240° (WSW) 20:09:07 137.9125
HO-68 25 Jul 20:02:47 20:07:49 21° 57° (ENE) 20:12:51 435.675
LilacSat-2 25 Jul 20:06:37 20:10:27 71° 259° (W) 20:14:21 437.200
NOAA 15 25 Jul 20:07:13 20:12:22 56° 259° (W) 20:17:32 137.62
CUBESAT XI-V 25 Jul 20:08:15 20:12:48 62° 286° (WNW) 20:17:22 437.345
BRITE-PL 25 Jul 20:13:49 20:17:38 34° 263° (W) 20:21:26 437.365/2234.400
SO-50 25 Jul 20:18:08 20:22:02 28° 247° (WSW) 20:25:49 436.795
CINEMA 3 25 Jul 20:20:16 20:22:49 15° 63° (ENE) 20:25:24 145.822/145.860
PHONESAT 2.4 25 Jul 20:34:30 20:37:34 63° 165° (SSE) 20:40:37 2401.200-2431.200
CANX-2 25 Jul 20:36:10 20:39:09 19° 67° (ENE) 20:42:08 2200.000
BEESAT 3 25 Jul 20:37:38 20:41:27 56° 119° (ESE) 20:45:20 437.485
BEESAT 2 25 Jul 20:40:00 20:43:28 30° 114° (ESE) 20:46:58 435.950
YUBILEINY 25 Jul 20:46:53 20:50:00 12° 57° (ENE) 20:53:07 435.215
STRAND 1 25 Jul 20:47:57 20:51:41 20° 93° (E) 20:55:25 437.568
CUTE 1.7 + AOD 2 25 Jul 20:49:36 20:52:56 22° 68° (ENE) 20:56:16 437.475
Cubesat XI-IV 25 Jul 20:56:27 21:01:00 28° 264° (W) 21:05:35 437.490
PCSat 25 Jul 21:09:58 21:15:08 47° 112° (ESE) 21:20:20 145.827
CUTE-I 25 Jul 21:22:17 21:25:37 17° 269° (W) 21:28:57 437.470
UWE-3 25 Jul 21:23:24 21:25:52 15° 63° (ENE) 21:28:22 435.000/436.395/437.385
GOMX 1 25 Jul 21:28:43 21:30:38 13° 270° (W) 21:32:35 467.674
DOVE 4 25 Jul 21:29:46 21:33:25 28° 265° (W) 21:37:15 437.250
ZACube-1 25 Jul 21:30:06 21:31:13 11° 61° (ENE) 21:32:19 437.345
FUNcube-1 25 Jul 21:31:03 21:31:27 10° 61° (ENE) 21:31:52 145.935
SEEDS 25 Jul 21:31:42 21:35:45 46° 73° (ENE) 21:39:48 437.485
CUBEBUG 2 25 Jul 21:39:26 21:43:23 30° 69° (ENE) 21:47:27 437.445
NOAA 18 25 Jul 21:43:34 21:44:53 11° 271° (W) 21:46:13 137.9125
COMPASS 1 25 Jul 21:47:18 21:51:19 47° 73° (ENE) 21:55:21 437.405
HO-68 25 Jul 21:47:32 21:54:43 79° 255° (WSW) 22:01:58 435.675
CINEMA 3 25 Jul 21:55:02 21:59:23 56° 260° (W) 22:04:00 145.822/145.860
Cosmos 2491 25 Jul 22:08:07 22:13:52 20° 79° (ENE) 22:19:37 435.465 / 435.565
CANX-2 25 Jul 22:10:44 22:14:43 37° 262° (W) 22:18:44 2200.000
PHONESAT 2.4 25 Jul 22:10:59 22:14:04 82° 1° (N) 22:17:09 2401.200-2431.200
Oscar 11 25 Jul 22:12:38 22:16:24 30° 70° (ENE) 22:20:12 145.826/435.025
BEESAT 3 25 Jul 22:17:06 22:19:28 15° 316° (NW) 22:21:52 437.485
AAUSAT CUBESAT 2 25 Jul 22:17:28 22:21:38 86° 79° (E) 22:25:49 437.432
BEESAT 2 25 Jul 22:18:02 22:21:18 24° 311° (NW) 22:24:36 435.950
PRISM 25 Jul 22:21:12 22:24:19 21° 95° (E) 22:27:26 437.425
AIST 2 25 Jul 22:24:29 22:27:23 19° 111° (ESE) 22:30:19 435.215
CUTE 1.7 + AOD 2 25 Jul 22:24:49 22:28:36 30° 264° (W) 22:32:24 437.475
M-CUBED/EXP-1 PRIME 25 Jul 22:25:11 22:28:00 20° 61° (ENE) 22:30:58 437.505
STRAND 1 25 Jul 22:26:12 22:31:04 46° 290° (WNW) 22:35:55 437.568
O/OREOS (USA 219) 25 Jul 22:34:55 22:39:17 57° 108° (ESE) 22:43:40 437.305
YUBILEINY 25 Jul 22:40:01 22:48:50 64° 79° (E) 22:57:31 435.215
AUBIESAT-1 25 Jul 22:52:17 22:55:42 33° 65° (ENE) 22:59:21 437.475
PCSat 25 Jul 22:54:14 22:58:44 26° 311° (NW) 23:03:16 145.827
DELFI C3 25 Jul 22:57:08 23:00:49 37° 72° (ENE) 23:04:31 145.870
UWE-3 25 Jul 22:57:18 23:01:47 59° 260° (W) 23:06:23 435.000/436.395/437.385
HUMSAT D 25 Jul 22:59:29 23:02:42 21° 67° (ENE) 23:05:56 437.325/437.525
ZACube-1 25 Jul 23:02:17 23:06:47 80° 259° (W) 23:11:23 437.345
FUNcube-1 25 Jul 23:02:26 23:06:56 85° 254° (WSW) 23:11:33 145.935
SEEDS 25 Jul 23:09:22 23:11:40 14° 268° (W) 23:13:59 437.485
CUBEBUG 2 25 Jul 23:16:09 23:19:58 26° 266° (W) 23:23:53 437.445
COMPASS 1 25 Jul 23:25:03 23:27:08 13° 269° (W) 23:29:12 437.405
ANTELSAT 25 Jul 23:32:01 23:33:27 11° 89° (E) 23:34:53 437.575/2403.000
HO-68 25 Jul 23:40:42 23:43:27 12° 272° (W) 23:46:14 435.675
Cosmos 2504 25 Jul 23:41:33 23:49:33 52° 76° (ENE) 23:56:57 435.465 / 435.565
ISS 25 Jul 23:44:53 23:48:07 73° 142° (SE) 23:51:22 145.825
PHONESAT 2.4 25 Jul 23:47:32 23:50:32 48° 198° (SSW) 23:53:31 2401.200-2431.200
Oscar 11 25 Jul 23:49:02 23:52:31 23° 265° (W) 23:56:02 145.826/435.025
PRISM 25 Jul 23:56:04 23:59:38 29° 290° (WNW) 00:03:12 437.425
M-CUBED/EXP-1 PRIME 25 Jul 23:59:07 00:02:20 29° 259° (W) 00:05:49 437.505
Cosmos 2491 26 Jul 00:00:52 00:09:35 81° 277° (W) 00:18:21 435.465 / 435.565
AIST 2 26 Jul 00:01:44 00:05:35 38° 307° (NW) 00:09:29 435.215
TIGRISAT 26 Jul 00:12:03 00:16:09 30° 96° (E) 00:20:08 435.000
AO-85 26 Jul 00:12:22 00:16:12 27° 47° (NE) 00:19:45 145.980
AISAT 26 Jul 00:15:10 00:17:44 16° 64° (ENE) 00:20:20 437.250
O/OREOS (USA 219) 26 Jul 00:16:28 00:19:04 15° 306° (NW) 00:21:40 437.305
DX 1 26 Jul 00:22:18 00:24:15 13° 63° (ENE) 00:26:11 434.975-435.025
UNISAT 6 26 Jul 00:27:30 00:32:00 46° 99° (E) 00:36:22 437.425
AUBIESAT-1 26 Jul 00:27:45 00:30:18 17° 263° (W) 00:32:59 437.475
DELFI C3 26 Jul 00:33:26 00:35:49 15° 267° (W) 00:38:12 145.870
HUMSAT D 26 Jul 00:34:12 00:38:06 34° 263° (W) 00:42:03 437.325/437.525
YUBILEINY 26 Jul 00:37:56 00:44:52 27° 278° (W) 00:51:47 435.215
UKube-1 26 Jul 00:38:55 00:41:25 15° 64° (ENE) 00:43:56 .
ESTCUBE 1 26 Jul 00:40:18 00:44:35 46° 72° (ENE) 00:48:53 437.505/2401.250
QB50P1 26 Jul 00:49:49 00:51:11 11° 90° (E) 00:52:32 145.935-145.965
50 SAT 26 Jul 00:50:34 00:53:51 31° 71° (ENE) 00:57:08 437.505
POPSAT HIP 1 26 Jul 00:55:27 00:57:31 13° 91° (E) 00:59:34 437.405
VELOX 1 26 Jul 01:04:56 01:09:09 49° 73° (ENE) 01:13:24 145.980
ANTELSAT 26 Jul 01:06:00 01:10:38 68° 285° (WNW) 01:15:09 437.575/2403.000
CUBEBUG 1 26 Jul 01:11:00 01:15:15 66° 75° (ENE) 01:19:34 437.445
SPROUT 26 Jul 01:14:34 01:18:12 28° 69° (ENE) 01:21:52 437.525
QB50P2 26 Jul 01:14:43 01:18:12 24° 95° (E) 01:21:39 145.880/145.840
POLYITAN 1 26 Jul 01:17:20 01:20:52 24° 95° (E) 01:24:21 437.675
ISS 26 Jul 01:22:22 01:24:51 20° 339° (NNW) 01:27:20 145.825
PHONESAT 2.4 26 Jul 01:25:22 01:26:34 12° 213° (SSW) 01:27:47 2401.200-2431.200
Cosmos 2504 26 Jul 01:35:40 01:42:25 30° 277° (W) 01:48:47 435.465 / 435.565
TIGRISAT 26 Jul 01:48:50 01:52:43 26° 292° (WNW) 01:56:31 435.000
AISAT 26 Jul 01:49:34 01:53:48 49° 260° (W) 01:58:05 437.250
AO-85 26 Jul 01:52:53 01:56:36 29° 247° (WSW) 02:00:04 145.980
DX 1 26 Jul 01:55:39 01:59:55 60° 259° (WSW) 02:04:13 434.975-435.025
NANOSAT C BR1 26 Jul 02:01:40 02:05:58 74° 102° (ESE) 02:10:13 145.865
Cosmos 2491 26 Jul 02:03:00 02:07:55 16° 299° (WNW) 02:12:54 435.465 / 435.565
UNISAT 6 26 Jul 02:05:13 02:08:19 18° 295° (WNW) 02:11:22 437.425
DUCHIFAT 1 26 Jul 02:06:52 02:11:09 79° 102° (ESE) 02:15:24 145.980
UKube-1 26 Jul 02:12:55 02:17:03 48° 260° (W) 02:21:14 .
TISAT 1 26 Jul 02:16:31 02:20:14 32° 70° (ENE) 02:24:00 437.305
ESTCUBE 1 26 Jul 02:18:51 02:21:37 16° 268° (W) 02:24:24 437.505/2401.250
QB50P1 26 Jul 02:23:05 02:27:19 59° 286° (WNW) 02:31:31 145.935-145.965
JAS-2 26 Jul 02:24:40 02:29:34 37° 98° (E) 02:34:49 435.910
50 SAT 26 Jul 02:25:19 02:27:33 15° 266° (W) 02:29:48 437.505
BUGSAT 1 26 Jul 02:28:57 02:33:11 60° 101° (E) 02:37:23 437.445
POPSAT HIP 1 26 Jul 02:29:24 02:33:35 51° 287° (WNW) 02:37:44 437.405
AIST 1 26 Jul 02:41:51 02:46:12 80° 263° (W) 02:50:33
VELOX 1 26 Jul 02:43:31 02:45:53 14° 268° (W) 02:48:17 145.980
GONETS M04 26 Jul 02:48:55 02:54:34 18° 62° (ENE) 03:00:14
QB50P2 26 Jul 02:50:16 02:53:58 28° 291° (WNW) 02:57:38 145.880/145.840
SPROUT 26 Jul 02:50:38 02:54:06 24° 265° (W) 02:57:36 437.525
CUBEBUG 1 26 Jul 02:51:30 02:51:58 10° 270° (W) 02:52:28 437.445
POLYITAN 1 26 Jul 02:52:56 02:56:37 28° 291° (WNW) 03:00:16 437.675
ISS 26 Jul 03:01:12 03:02:16 11° 359° (N) 03:03:19 145.825
SWISSCUBE 26 Jul 03:02:04 03:05:52 24° 66° (ENE) 03:09:41 437.505
Oscar 19 26 Jul 03:20:40 03:25:22 34° 97° (E) 03:30:03 437.125/150
BEESAT 26 Jul 03:23:02 03:27:21 34° 69° (ENE) 03:31:40 436.000
NANOSAT C BR1 26 Jul 03:40:21 03:41:04 10° 298° (WNW) 03:41:46 145.865
ITUPSAT 1 26 Jul 03:44:32 03:49:13 56° 73° (ENE) 03:53:56 437.325
TISAT 1 26 Jul 03:52:48 03:55:56 20° 266° (W) 03:59:05 437.305
BUGSAT 1 26 Jul 04:06:16 04:08:02 12° 297° (WNW) 04:09:47 437.445
JAS-2 26 Jul 04:10:13 04:14:32 26° 293° (WNW) 04:19:06 435.910
MOZHAYETS 4 26 Jul 04:20:34 04:23:28 17° 64° (ENE) 04:26:21
AO-7 26 Jul 04:22:28 04:24:18 11° 87° (E) 04:26:08 29.400- 29.500
Gurwin Techsat 1B 26 Jul 04:26:45 04:32:03 65° 102° (ESE) 04:37:20 435.225
ISS 26 Jul 04:37:24 04:39:43 18° 19° (NNE) 04:42:02 145.825
Cosmos 2499 26 Jul 04:39:01 04:46:51 60° 78° (ENE) 04:54:03 435.465 / 435.565
SWISSCUBE 26 Jul 04:39:04 04:43:27 36° 262° (W) 04:47:52 437.505
STARS 26 Jul 04:42:48 04:44:50 13° 62° (ENE) 04:46:52 437.465
GONETS M04 26 Jul 04:43:51 04:52:42 88° 83° (E) 05:01:34
ITAMSAT 1 26 Jul 04:51:15 04:56:01 35° 98° (E) 05:00:43 435.822/435.867
BEESAT 3 26 Jul 04:55:31 04:59:00 28° 50° (NE) 05:02:26 437.485
BEESAT 2 26 Jul 04:58:40 05:01:29 18° 46° (NE) 05:04:19 435.950
Oscar 19 26 Jul 05:00:11 05:04:33 28° 293° (WNW) 05:08:55 437.125/150
BEESAT 26 Jul 05:01:17 05:05:09 24° 265° (W) 05:09:03 436.000
ITUPSAT 1 26 Jul 05:24:39 05:27:23 15° 268° (W) 05:30:07 437.325
KKS-1 26 Jul 05:33:05 05:37:31 90° 279° (W) 05:41:59 437.445
CUBESAT XI-V 26 Jul 05:36:32 05:38:26 12° 62° (ENE) 05:40:21 437.345
MOZHAYETS 4 26 Jul 05:55:42 06:00:12 51° 260° (W) 06:04:44
PCSat 26 Jul 05:58:21 06:03:19 35° 53° (NE) 06:08:15 145.827
CUSAT 1 26 Jul 05:58:24 06:02:51 64° 279° (W) 06:06:16 437.405
DANDE 26 Jul 06:04:13 06:10:04 52° 97° (E) 06:14:28 436.750
Gurwin Techsat 1B 26 Jul 06:08:09 06:11:26 17° 298° (WNW) 06:14:43 435.225
AO-7 26 Jul 06:10:10 06:18:30 67° 105° (ESE) 06:26:45 29.400- 29.500
ISS 26 Jul 06:13:17 06:16:32 88° 37° (NE) 06:19:48 145.825
STARS 26 Jul 06:16:20 06:20:39 61° 259° (W) 06:25:02 437.465
ITAMSAT 1 26 Jul 06:30:58 06:35:19 28° 294° (WNW) 06:39:39 435.822/435.867
BEESAT 3 26 Jul 06:33:18 06:36:34 25° 247° (WSW) 06:39:49 437.485
Cosmos 2499 26 Jul 06:33:18 06:39:12 24° 279° (W) 06:44:49 435.465 / 435.565
BEESAT 2 26 Jul 06:35:43 06:39:33 44° 243° (WSW) 06:43:20 435.950
GONETS M04 26 Jul 06:42:55 06:48:16 18° 282° (WNW) 06:53:38
AIST 2 26 Jul 06:46:08 06:48:23 14° 42° (NE) 06:50:38 435.215
HORYU 2 26 Jul 06:49:11 06:53:04 28° 96° (E) 06:56:55 437.375
O/OREOS (USA 219) 26 Jul 07:08:17 07:09:48 11° 52° (NE) 07:11:19 437.305
CUBESAT XI-V 26 Jul 07:10:38 07:15:14 69° 258° (WSW) 07:19:51 437.345
Cubesat XI-IV 26 Jul 07:35:06 07:38:02 15° 91° (E) 07:40:57 437.490
LilacSat-2 26 Jul 07:42:13 07:44:02 13° 91° (E) 07:45:50 437.200
